Terug naar catalogus

FREGAT DEB

LostUNKNOWN
NORAD 46621·DEBRIS·🇷🇺 Russia

Gelanceerd Jul 18, 2011 vanaf Baikonur Cosmodrome

Loading…

Volgende Passages (komende 24 uur)

TLE

VerouderdSource: Space-Track

Epoch: Sep 23, 2024, 10:47 UTC

1 46621U 11037MM  24267.44946238 -.00000787  00000-0 -30886-1 0  9992
2 46621  50.7052  60.8865 0762060  83.8061 284.8885 10.49705685  7263

Volg FREGAT DEB in realtime met AllMySat

Download on the App Store